Temperature
16 16 17 17 18 18 17 16 15 15 16 16 16 16 16 16 16 16 15 15 15 15 15 15 15 14 14 14 14 13 13 13 13 12 12 12 12 12 12 11 11 11 11 11
16 17 17 17 17 17 17 16 16 16 15 16 16 16 16 16 15 15 15 15 15 15 15 15 14 14 14 14 13 13 13 13 12 12 12 12 12 11 11 11 11 11 11 11
14 15 16 15 16 16 16 16 16 15 15 15 14 14 15 15 15 15 15 15 15 15 15 14 14 14 14 14 13 13 13 12 12 12 12 11 11 11 11 11 11 10 10 10
13 14 14 15 16 16 16 16 16 15 15 15 15 15 15 16 16 15 15 15 15 15 15 14 14 14 14 13 13 13 12 12 12 12 11 11 11 11 11 10 10 10 10 10
12 13 14 15 16 16 16 15 15 15 14 14 15 14 14 15 15 15 15 15 14 14 14 14 14 13 13 13 13 12 12 12 11 11 11 11 11 10 10 10 10 10 9 9
12 13 13 14 16 17 15 14 14 14 14 14 14 12 12 14 15 15 14 14 14 14 14 13 13 13 13 12 12 12 12 11 11 11 11 11 10 10 10 10 9 9 9 9
12 12 13 14 15 16 15 14 15 15 14 14 13 13 14 14 14 14 14 14 14 13 13 13 13 12 12 12 11 11 11 11 11 10 10 10 10 9 9 9 9 9 9 9
11 12 13 14 15 14 14 15 15 15 15 14 14 14 14 14 13 13 13 13 13 13 12 12 12 12 12 11 11 11 10 10 10 10 10 9 9 9 9 8 8 8 8 8
12 12 13 15 15 16 16 15 15 15 14 14 14 13 13 13 13 12 12 12 12 12 12 12 11 11 11 11 10 10 10 10 10 9 9 9 8 8 8 8 8 8 8 8
11 12 13 14 15 15 16 15 15 15 14 14 14 13 12 12 12 12 11 11 11 11 11 11 11 11 10 10 10 10 10 9 9 9 9 8 8 8 8 8 8 7 7 7
11 11 12 14 14 15 15 15 14 14 14 14 13 13 12 12 11 11 11 11 11 11 10 10 10 10 10 10 9 9 9 9 9 8 8 8 7 7 7 7 7 7 7 7
11 12 11 13 14 14 14 14 14 14 13 13 13 12 12 11 11 11 10 10 10 10 10 10 10 9 9 9 9 9 9 8 8 8 8 7 7 7 7 7 7 6 6 6
14 14 13 13 13 13 14 13 13 13 13 12 12 12 11 11 10 10 10 10 10 10 9 9 9 9 9 9 9 8 8 8 8 7 7 7 7 6 6 6 6 6 6 6
14 13 13 13 13 13 13 13 12 12 12 12 11 11 11 10 10 10 10 9 9 9 9 9 9 8 8 8 8 8 8 7 7 7 7 6 6 6 6 6 5 5 5 5
13 13 13 12 12 12 12 12 12 11 11 11 11 10 10 10 10 9 9 9 9 9 8 8 8 8 7 7 7 7 7 7 6 6 6 6 6 5 5 5 5 5 5 5
12 12 12 12 12 11 11 11 11 11 11 10 10 10 10 10 9 9 9 9 9 8 8 8 8 7 7 7 7 7 6 6 6 6 5 5 5 5 5 5 5 5 4 4
11 11 11 11 11 11 11 11 11 11 10 10 10 10 9 9 9 9 8 8 8 8 8 8 7 7 7 7 6 6 6 6 6 5 5 5 5 4 4 4 4 4 4 4
11 11 11 11 11 10 10 10 10 10 10 10 9 9 9 9 8 8 8 8 7 7 7 7 7 7 6 6 6 6 6 5 5 5 5 4 4 4 4 4 4 4 3 3
10 11 10 10 10 10 10 10 10 10 10 9 9 9 8 8 8 8 7 7 7 7 7 6 6 6 6 6 5 5 5 5 5 4 4 4 4 4 3 3 3 3 3 3
10 10 10 10 10 10 10 9 9 9 9 9 9 8 8 8 7 7 7 7 6 6 6 6 6 5 5 5 5 5 5 4 4 4 4 3 3 3 3 3 3 3 3 2
10 10 10 10 9 9 9 9 9 9 8 8 8 8 8 7 7 7 6 6 6 6 5 5 5 5 5 5 5 4 4 4 4 3 3 3 3 3 3 2 2 2 2 2
9 9 9 9 9 9 9 8 8 8 8 8 8 7 7 7 6 6 6 6 5 5 5 5 4 4 4 4 4 4 4 4 3 3 3 2 2 2 2 2 2 2 2 1
9 9 9 8 8 8 8 8 8 8 8 7 7 7 7 7 6 6 5 5 5 5 4 4 4 4 4 4 4 4 3 3 3 3 2 2 2 2 2 1 1 1 1 1
8 8 8 8 8 8 8 7 7 7 7 7 7 7 6 6 6 5 5 5 4 4 4 4 4 3 3 3 3 3 3 3 2 2 2 2 1 1 1 1 1 1 1 0
7 7 7 7 7 7 7 7 7 7 7 6 6 6 6 6 5 5 5 4 4 4 3 3 3 3 3 3 3 3 2 2 2 2 2 1 1 1 1 1 1 0 0 0
7 7 7 7 7 7 7 6 6 6 6 6 6 5 5 5 5 4 4 4 4 3 3 3 3 2 2 2 2 2 2 2 2 2 1 1 1 1 1 0 0 0 -0 -0
7 6 6 6 6 6 6 6 6 6 5 5 5 5 4 4 4 4 4 3 3 3 3 3 2 2 2 2 2 2 2 1 1 1 1 1 1 0 0 0 -0 -0 -0 -1
Wind_Speed
5 5 4 4 6 4 5 7 7 7 7 8 7 6 5 3 3 4 3 3 4 4 3 3 3 3 4 4 4 5 5 5 6 5 5 4 4 4 3 3 4 4 4 3
4 5 4 4 5 5 5 5 6 5 6 5 3 3 3 3 5 5 4 4 4 4 4 4 4 4 3 4 4 5 5 6 5 5 4 4 4 4 3 3 3 3 3 3
4 6 5 5 5 5 4 3 5 7 7 3 2 4 4 4 4 5 5 4 4 4 4 4 4 4 4 5 4 4 5 5 5 5 5 4 4 3 3 3 2 3 3 3
2 2 5 6 3 3 3 2 3 3 3 5 5 4 3 3 4 4 3 3 3 3 3 3 3 3 3 3 3 3 3 4 4 4 4 4 3 3 3 2 2 3 3 3
3 3 5 6 4 2 3 3 2 3 3 3 3 3 2 0 2 4 4 4 3 3 2 2 2 3 3 2 2 2 3 3 4 4 4 3 4 4 3 3 3 3 2 2
4 3 6 7 5 2 3 2 4 3 4 4 5 2 4 3 1 1 1 2 3 2 2 2 2 3 4 2 2 3 4 4 4 4 4 4 4 4 3 3 3 2 2 2
5 5 6 7 4 2 3 6 4 3 4 5 5 5 4 2 1 1 2 2 3 3 3 2 2 4 4 2 3 3 3 3 3 3 4 4 3 3 2 2 2 2 1 1
5 5 7 4 2 4 6 3 3 3 3 4 3 2 3 3 2 2 2 2 3 3 2 1 2 4 3 2 3 2 1 2 2 2 2 2 3 2 2 3 2 2 1 1
7 7 5 3 5 4 4 4 3 3 3 4 4 3 3 3 3 1 1 2 2 3 2 1 1 3 3 2 2 2 2 2 2 1 1 2 3 2 2 2 2 2 1 1
2 4 3 3 2 2 3 4 4 4 4 4 4 3 3 3 2 1 0 1 1 3 2 1 1 1 1 1 2 3 3 2 2 2 1 1 2 2 2 2 2 2 1 1
3 3 2 3 2 2 2 2 3 3 4 5 4 4 4 3 2 2 1 0 1 3 2 0 0 1 0 1 2 3 2 2 2 2 2 2 1 1 2 2 2 2 2 2
7 7 5 5 5 3 4 4 4 4 3 3 4 4 3 3 2 2 2 1 2 2 2 1 1 1 1 1 2 3 2 2 2 2 2 3 2 1 2 2 2 2 2 2
7 5 5 5 4 3 4 4 5 5 5 4 3 4 4 3 2 2 2 2 3 2 2 1 1 1 1 1 3 3 2 1 1 2 2 3 3 3 1 1 3 2 2 2
4 3 2 3 4 3 3 3 3 3 3 4 4 4 4 3 3 3 3 3 2 2 2 2 2 0 1 1 2 2 1 1 2 2 2 2 2 2 2 2 0 2 2 2
4 4 5 4 2 2 2 3 3 2 3 3 4 5 5 5 4 4 3 3 2 2 2 2 2 1 0 1 2 1 1 1 1 1 1 2 2 2 2 1 1 0 1 2
4 3 3 3 4 3 3 4 4 4 4 4 4 5 5 5 5 4 3 3 4 3 2 2 2 2 1 2 2 1 1 2 2 2 1 1 1 2 2 1 1 1 0 1
5 4 4 4 4 4 5 5 6 6 5 5 5 5 5 4 4 3 3 3 3 3 3 3 2 2 2 2 3 1 1 1 2 2 1 1 1 1 2 2 1 1 1 1
8 8 7 7 6 5 5 4 4 5 5 4 4 5 5 5 5 4 3 3 2 1 1 2 2 2 2 2 2 2 2 1 2 2 2 1 1 1 1 1 1 1 1 1
6 6 6 6 5 5 5 4 4 4 4 4 5 5 5 5 4 3 3 3 3 2 2 1 2 2 1 1 2 2 2 2 1 1 1 2 1 1 1 1 1 1 1 0
4 5 5 4 4 4 4 4 4 3 3 4 5 5 4 4 4 3 3 3 3 3 3 2 2 2 2 2 2 2 2 2 2 1 1 1 1 1 1 1 1 1 1 1
3 3 4 4 3 3 4 4 5 4 4 4 5 5 5 4 4 4 3 2 2 2 2 3 2 1 2 2 3 2 2 2 2 2 2 2 1 1 1 1 1 1 1 1
2 3 3 3 3 3 3 4 5 5 4 4 4 4 4 4 3 2 2 3 2 3 2 2 2 3 3 2 2 2 2 2 2 2 2 2 2 2 2 2 1 2 1 1
2 2 2 2 3 2 2 2 4 4 5 5 5 5 5 4 3 3 2 2 2 3 2 1 2 3 3 2 2 2 2 2 2 2 2 2 2 2 2 2 2 2 2 2
1 1 1 2 3 3 2 1 2 2 3 3 4 4 4 3 1 2 2 3 3 3 2 2 3 3 2 1 2 2 2 2 2 2 2 2 2 2 2 2 2 2 2 2
2 2 2 3 3 2 2 1 1 1 2 2 2 2 2 3 3 2 2 3 4 3 1 2 3 2 2 2 2 2 2 2 2 2 2 2 2 2 2 2 3 3 2 2
2 2 2 3 3 3 2 2 2 2 2 2 1 1 1 1 2 2 2 2 2 2 1 1 2 2 1 1 2 2 2 2 2 2 2 2 2 2 2 3 3 3 3 3
1 1 1 1 1 2 3 3 3 2 3 3 2 2 2 2 2 2 2 1 1 1 1 1 1 1 1 1 2 2 2 2 2 2 2 2 2 3 3 3 3 3 3 3
Wind_Direction
237 257 260 257 262 243 208 197 201 220 222 237 226 216 205 192 162 141 141 155 171 181 194 193 186 193 196 199 195 186 183 193 203 203 201 195 195 197 202 200 209 208 207 217
290 283 284 284 280 260 245 221 211 222 250 246 224 162 165 173 160 160 173 186 189 185 186 195 195 193 192 193 194 183 186 202 202 192 189 192 196 193 194 203 211 206 206 210
272 298 328 284 255 229 227 221 197 221 236 212 163 167 183 185 169 170 181 190 196 198 200 206 205 194 197 203 195 183 194 201 196 191 195 202 198 187 199 211 201 204 211 209
227 343 247 251 265 206 192 252 217 193 201 186 186 184 173 169 169 174 175 181 201 205 204 204 197 187 188 179 173 182 194 203 195 189 195 192 179 188 209 210 205 211 218 219
161 216 270 286 273 207 187 277 291 175 160 152 124 67 14 358 161 176 186 190 195 193 184 174 179 173 148 141 150 168 194 199 195 185 185 181 185 200 206 197 206 213 206 214
159 194 235 248 261 231 121 260 266 169 157 157 120 146 254 250 184 131 129 163 167 160 134 128 172 148 139 155 162 202 213 207 198 185 181 191 202 205 202 191 200 203 209 223
183 216 255 256 267 106 172 235 227 174 168 167 179 205 216 176 130 125 117 116 128 126 129 157 155 134 140 157 199 227 220 201 193 189 184 188 190 181 170 175 173 179 193 235
168 198 246 251 154 181 214 211 180 173 170 165 172 146 142 139 130 111 100 93 112 122 123 126 132 134 148 198 224 205 151 151 171 179 179 166 161 166 164 164 165 180 197 258
190 212 236 220 205 217 172 170 187 171 170 148 139 155 152 146 141 136 127 102 98 124 108 60 94 131 159 218 192 142 126 140 155 144 146 145 149 154 145 147 160 179 177 217
219 259 261 257 234 221 182 182 180 160 151 146 149 158 151 155 158 151 132 110 115 116 103 54 29 118 175 196 166 143 149 164 162 152 137 119 128 140 140 149 156 165 177 220
233 254 311 302 242 207 177 143 133 139 151 159 151 162 166 173 172 166 171 212 136 135 137 165 29 45 38 105 119 133 144 153 159 160 150 134 122 133 148 167 165 168 188 194
225 221 201 231 236 196 166 174 170 156 148 162 169 176 170 180 182 167 174 178 142 136 132 121 100 67 11 82 112 124 144 158 173 171 162 151 141 94 44 70 90 113 110 116
226 227 216 221 224 206 186 184 179 174 173 176 186 170 163 171 178 164 173 175 166 165 160 147 111 66 353 88 111 114 132 162 170 168 168 164 160 156 149 16 28 29 47 70
208 191 216 224 227 216 188 183 176 170 182 184 180 167 159 163 168 169 189 198 178 156 154 154 138 180 269 113 117 123 135 135 137 165 173 166 165 171 174 171 196 329 344 18
232 211 212 214 201 196 177 157 157 183 192 187 178 171 167 167 180 188 190 176 149 139 160 160 152 225 235 116 115 124 130 149 145 136 135 149 153 152 157 162 164 208 2 354
218 190 181 187 195 202 191 185 187 200 199 197 192 188 185 176 175 175 180 167 153 170 193 181 193 217 163 127 117 116 135 120 123 120 109 102 122 141 158 167 169 175 235 270
181 198 199 202 215 221 213 202 198 199 198 198 198 190 173 156 154 169 189 189 176 181 189 187 201 184 150 141 136 142 151 147 130 121 130 137 146 166 183 185 189 204 238 250
203 204 202 198 202 213 213 208 196 189 192 200 187 169 163 163 173 185 189 165 135 128 191 193 182 165 149 150 151 146 141 143 146 145 143 144 157 178 179 174 183 187 237 283
202 199 201 203 206 197 198 204 199 190 183 169 159 164 170 172 176 174 163 153 158 185 227 192 160 149 157 171 144 141 142 140 142 147 143 138 125 132 155 164 171 180 197 220
197 192 194 200 195 185 190 192 181 174 173 161 158 159 162 170 166 161 158 176 206 212 195 175 158 162 177 182 157 149 151 155 156 157 148 150 149 153 163 166 167 185 205 216
176 173 169 174 186 193 189 178 168 172 175 166 166 176 179 179 171 160 158 196 247 187 168 172 166 187 189 175 156 147 155 161 166 174 178 179 177 182 185 186 196 206 212 219
153 157 166 168 173 189 189 175 169 168 167 167 163 158 156 160 163 160 177 197 197 177 167 173 179 194 183 160 141 152 165 172 178 183 189 194 192 196 202 203 216 226 223 215
156 163 170 173 175 177 154 154 162 163 166 166 165 165 167 172 169 167 203 215 174 176 161 184 199 194 184 157 151 160 172 181 189 195 200 200 200 200 205 210 217 223 222 223
161 164 163 140 119 114 123 177 174 166 162 164 170 167 158 157 179 206 191 176 174 178 182 200 207 203 187 147 155 162 176 194 199 199 203 207 205 205 210 215 223 228 224 223
173 170 151 136 140 163 179 170 140 138 143 154 161 166 168 172 183 195 177 176 176 174 193 217 210 192 154 151 167 181 197 208 204 194 201 208 214 218 222 222 226 230 232 236
183 190 195 194 188 181 173 160 163 182 169 163 178 183 171 162 159 155 152 161 169 177 185 218 221 199 165 170 189 202 211 230 243 227 208 213 218 222 226 229 235 234 236 239
176 165 156 162 190 177 172 173 182 196 191 183 193 205 180 154 142 144 143 143 145 147 164 189 181 178 181 189 206 217 214 209 210 213 215 218 220 226 231 235 241 243 241 236
Height
1498 1494 1493 1491 1490 1489 1493 1496 1502 1498 1495 1490 1487 1486 1486 1486 1486 1487 1488 1488 1489 1490 1491 1492 1493 1493 1494 1495 1496 1497 1498 1498 1499 1500 1500 1501 1501 1502 1502 1503 1503 1504 1504 1504
1497 1492 1491 1491 1489 1487 1487 1488 1491 1491 1491 1484 1483 1483 1484 1485 1485 1485 1486 1487 1488 1488 1489 1490 1490 1491 1491 1492 1493 1494 1494 1495 1495 1496 1496 1497 1498 1498 1499 1499 1500 1500 1500 1501
1505 1497 1493 1497 1488 1486 1486 1483 1485 1490 1487 1482 1483 1483 1483 1483 1483 1483 1484 1485 1486 1486 1487 1487 1488 1488 1489 1489 1490 1490 1491 1491 1492 1492 1492 1493 1494 1495 1495 1495 1496 1496 1497 1497
1505 1502 1507 1493 1481 1480 1481 1481 1480 1480 1480 1480 1480 1480 1481 1482 1482 1482 1483 1483 1484 1484 1484 1485 1486 1486 1486 1487 1487 1487 1487 1488 1488 1489 1489 1489 1490 1491 1491 1492 1492 1492 1493 1493
1507 1507 1500 1488 1480 1479 1481 1483 1479 1479 1478 1479 1479 1480 1481 1481 1481 1481 1481 1481 1482 1482 1483 1483 1483 1483 1483 1483 1484 1484 1484 1484 1484 1485 1485 1486 1486 1487 1487 1488 1488 1489 1489 1490
1503 1504 1503 1488 1477 1475 1479 1486 1478 1476 1477 1478 1478 1484 1482 1480 1480 1480 1480 1479 1480 1480 1481 1481 1481 1481 1481 1480 1480 1480 1480 1481 1481 1482 1482 1482 1482 1483 1484 1484 1485 1486 1486 1486
1500 1501 1493 1479 1474 1475 1487 1484 1476 1475 1475 1476 1476 1478 1478 1477 1478 1478 1478 1478 1478 1478 1478 1479 1479 1479 1478 1478 1477 1477 1477 1478 1478 1478 1478 1478 1479 1480 1480 1481 1482 1482 1482 1482
1497 1499 1493 1474 1474 1477 1476 1472 1473 1473 1473 1473 1474 1475 1475 1476 1476 1477 1477 1476 1476 1476 1476 1477 1476 1476 1475 1475 1475 1475 1475 1475 1475 1475 1475 1475 1476 1476 1477 1478 1478 1479 1479 1479
1484 1483 1473 1470 1470 1470 1470 1471 1471 1471 1471 1472 1472 1473 1473 1474 1474 1475 1475 1474 1475 1475 1474 1474 1474 1474 1473 1472 1473 1472 1472 1472 1472 1472 1472 1472 1473 1473 1474 1474 1475 1475 1475 1475
1477 1473 1470 1469 1468 1469 1469 1469 1469 1470 1470 1470 1470 1470 1471 1472 1472 1472 1472 1473 1473 1472 1472 1472 1472 1471 1471 1470 1470 1470 1470 1470 1470 1470 1470 1470 1470 1471 1471 1471 1471 1472 1472 1472
1474 1471 1469 1468 1467 1468 1468 1468 1468 1469 1469 1469 1469 1469 1469 1469 1469 1470 1470 1471 1471 1470 1470 1470 1469 1469 1469 1468 1468 1467 1467 1467 1467 1467 1467 1467 1468 1468 1468 1469 1469 1469 1470 1470
1470 1466 1467 1466 1466 1466 1466 1466 1466 1467 1467 1468 1468 1467 1467 1468 1468 1468 1469 1469 1468 1468 1468 1467 1467 1467 1466 1466 1466 1465 1465 1464 1464 1465 1465 1465 1465 1466 1466 1467 1467 1467 1468 1468
1461 1461 1462 1463 1463 1464 1463 1463 1464 1464 1464 1465 1465 1465 1465 1466 1466 1466 1467 1467 1466 1466 1466 1465 1465 1465 1465 1464 1464 1463 1463 1462 1462 1462 1462 1463 1463 1463 1464 1465 1465 1465 1465 1465
1459 1459 1460 1460 1460 1461 1461 1461 1461 1461 1462 1462 1462 1463 1463 1463 1464 1464 1464 1464 1464 1464 1464 1464 1463 1463 1463 1462 1462 1461 1461 1461 1460 1460 1460 1461 1461 1462 1462 1462 1463 1463 1463 1463
1456 1456 1456 1457 1457 1458 1458 1458 1459 1458 1459 1459 1459 1460 1460 1460 1461 1461 1462 1462 1462 1462 1462 1462 1461 1461 1460 1460 1459 1459 1459 1459 1459 1459 1459 1459 1459 1460 1460 1461 1461 1460 1461 1461
1452 1453 1453 1454 1454 1455 1455 1455 1455 1455 1456 1456 1456 1457 1458 1458 1459 1459 1460 1460 1459 1459 1459 1459 1459 1458 1458 1458 1457 1457 1457 1457 1457 1457 1457 1457 1458 1458 1458 1458 1458 1458 1458 1459
1448 1448 1449 1450 1451 1451 1452 1452 1452 1452 1452 1453 1453 1454 1455 1456 1456 1456 1457 1457 1457 1457 1457 1457 1456 1456 1456 1456 1455 1455 1455 1455 1455 1455 1455 1455 1456 1456 1456 1456 1456 1456 1456 1456
1444 1444 1445 1446 1447 1448 1449 1449 1449 1449 1449 1450 1451 1452 1452 1452 1453 1454 1454 1454 1454 1454 1454 1454 1454 1454 1454 1454 1453 1453 1453 1453 1453 1453 1453 1453 1454 1454 1454 1454 1454 1454 1454 1454
1439 1440 1442 1443 1444 1445 1445 1446 1446 1446 1447 1448 1448 1449 1449 1450 1451 1451 1451 1451 1451 1451 1452 1452 1452 1452 1452 1452 1451 1451 1451 1451 1451 1451 1451 1451 1451 1451 1452 1452 1452 1452 1452 1452
1436 1437 1438 1439 1440 1441 1442 1443 1443 1444 1444 1445 1446 1447 1447 1448 1449 1449 1449 1449 1449 1449 1449 1449 1449 1449 1449 1449 1449 1449 1449 1449 1449 1449 1449 1449 1449 1449 1449 1450 1450 1450 1450 1450
1433 1434 1435 1436 1437 1438 1439 1440 1440 1441 1442 1442 1443 1444 1444 1445 1446 1446 1446 1446 1447 1447 1447 1447 1447 1447 1446 1446 1446 1446 1446 1446 1446 1446 1447 1447 1446 1447 1447 1447 1447 1447 1447 1447
1432 1433 1433 1434 1435 1435 1436 1437 1438 1439 1439 1440 1441 1441 1442 1442 1443 1443 1444 1444 1444 1445 1445 1444 1444 1444 1444 1444 1444 1444 1444 1444 1444 1444 1444 1444 1444 1444 1444 1444 1444 1444 1444 1444
1431 1432 1432 1432 1433 1433 1434 1435 1436 1437 1437 1438 1438 1439 1439 1440 1440 1440 1441 1442 1442 1442 1442 1442 1442 1442 1442 1442 1442 1442 1442 1442 1442 1442 1442 1442 1441 1441 1441 1441 1441 1441 1441 1441
1430 1431 1431 1431 1432 1432 1433 1433 1434 1435 1435 1436 1437 1437 1438 1438 1438 1439 1439 1439 1440 1440 1440 1440 1440 1439 1439 1439 1439 1439 1439 1440 1440 1440 1439 1439 1439 1438 1438 1438 1438 1438 1438 1437
1429 1429 1430 1430 1430 1430 1431 1432 1432 1433 1433 1434 1434 1435 1435 1436 1436 1436 1436 1436 1437 1437 1437 1437 1437 1437 1437 1437 1437 1437 1437 1437 1437 1437 1436 1436 1436 1435 1435 1435 1435 1435 1434 1434
1428 1428 1428 1429 1429 1430 1430 1430 1430 1431 1431 1431 1432 1432 1433 1433 1433 1434 1434 1434 1434 1434 1434 1435 1434 1434 1434 1434 1434 1434 1434 1434 1434 1434 1433 1433 1433 1432 1432 1432 1432 1431 1431 1430
1426 1426 1427 1427 1427 1428 1428 1429 1429 1429 1429 1429 1429 1430 1430 1431 1431 1431 1432 1432 1432 1432 1432 1432 1432 1432 1431 1431 1431 1431 1431 1431 1431 1431 1430 1430 1429 1429 1429 1428 1428 1427 1427 1426